Regional Weather Roundup
Issued by NWS

Home | Current Version | Previous Version | Graphics & Text | Print | Product List | Glossary On
Versions: 1 2 3 4 5 6 7 8 9 10 11 12 13 14 15 16 17 18 19 20 21 22 23 24 25 26 27 28 29 30 31 32 33 34 35 36 37 38 39 40 41 42 43 44 45 46 47 48 49 50
000
ASUS43 KLMK 200602
RWRKY
KENTUCKY REGIONAL WEATHER ROUNDUP
NATIONAL WEATHER SERVICE LOUISVILLE KY
100 AM EST SAT JAN 20 2018

NOTE "FAIR" INDICATES FEW OR NO CLOUDS BELOW 12,000 FEET
WITH NO SIGNIFICANT WEATHER AND/OR OBSTRUCTIONS TO VISIBILITY.

KYZ001>023-026-027-061>063-070>075-200700-
WESTERN AND SOUTH CENTRAL KENTUCKY

CITY           SKY/WX    TMP DP  RH WIND       PRES   REMARKS
PADUCAH        FAIR      38  17  42 SW8       30.09S WCI  32
HENDERSON      FAIR      36  20  52 SW10      30.06S WCI  28
OWENSBORO      FAIR      34  22  61 S10       30.08R WCI  26
HOPKINSVILLE   CLOUDY    42  19  39 S15       30.11S
BOWLING GREEN  CLOUDY    41  26  55 S9        30.13S
GLASGOW        NOT AVBL
$$

KYZ024-025-028>034-038-045-046-053-200700-
NORTH CENTRAL KENTUCKY

CITY           SKY/WX    TMP DP  RH WIND       PRES   REMARKS
LOUISVILLE/SDF MOCLDY    41  25  53 S12       30.06S
LOUISVILLE/LOU MOCLDY    38  26  62 S9        30.07S WCI  31
FORT KNOX      MOCLDY    38  24  58 S13       30.06S WCI  30
$$

KYZ035>037-039>044-047>052-055>060-089>105-200700-
NORTHEAST KENTUCKY

CITY           SKY/WX    TMP DP  RH WIND       PRES   REMARKS
LEXINGTON      FAIR      35  20  54 S13       30.09S WCI  26
COVINGTON      FAIR      37  24  59 SW14      30.01S WCI  28
FRANKFORT      FAIR      38  20  48 SW13      30.07R WCI  30
$$

KYZ054-064>069-076>088-106>120-200700-
SOUTHEAST KENTUCKY

CITY           SKY/WX    TMP DP  RH WIND       PRES   REMARKS
JACKSON        FAIR      35  15  44 S6        30.12S WCI  30
LONDON         CLOUDY    35  18  49 S7        30.15F WCI  29
SOMERSET       NOT AVBL
MIDDLESBORO    CLOUDY    22  20  91 CALM      30.22S
MONTICELLO     CLOUDY    42  28  57 SW18      30.18S
$$




USA.gov is the U.S. government's official web portal to all federal, state and local government web resources and services.